Location: Arbon
(43.0005°N, 0.7472°E)
Time: 21:13:40
(UTC+00:00)

Altair - Pass Details

Date: 03 December 2020
Orbit: 1501 x 1682 km, 47.2° (Epoch: 26 January)

Event Time Altitude Azimuth Distance (km) Brightness Sun altitude
Rises 03:15:00 0° 291° (WNW) 4,637 - -42.4°
Reaches altitude 10° 03:18:54 10° 277° (W) 3,655 - -41.7°
Maximum altitude 03:25:16 21° 232° (SW) 2,870 - -40.5°
Drops below altitude 10° 03:31:43 10° 187° (S) 3,694 - -39.3°
Exits shadow 03:33:00 - 182° (S) 3,992 9.6 -39.1°
Sets 03:35:44 0° 173° (S) 4,699 10.1 -38.6°
